| time (UTC) | temp C | wind direction | speed KPH | gust KPH | rain 1hr cm | rain 24hr cm | rain mn cm | humidity % | barometer mb |
| 20260504120121 | 8 | 163 | 0.0 | 0.0 | 0.00 | 0.00 | 0.00 | 73 | 1015.5 |
| 20260504081545 | 4 | 280 | 0.0 | 0.0 | 0.00 | 0.00 | 0.00 | 79 | 1015.6 |
| 20260504060107 | 5 | 248 | 0.0 | 0.0 | 0.00 | 0.00 | 0.00 | 75 | 1015.8 |
| 20260504050018 | 6 | 249 | 0.0 | 0.0 | 0.00 | 0.00 | 0.00 | 77 | 1015.6 |
| 20260504044600 | 6 | 248 | 0.0 | 0.0 | 0.00 | 0.00 | 0.00 | 76 | 1015.8 |
| 20260504043033 | 6 | 249 | 0.0 | 0.0 | 0.00 | 0.00 | 0.00 | 71 | 1015.5 |
| 20260504041503 | 6 | 248 | 0.0 | 0.0 | 0.00 | 0.00 | 0.00 | 76 | 1015.4 |
| 20260504040046 | 6 | 248 | 0.0 | 1.6 | 0.00 | 0.00 | 0.00 | 74 | 1015.3 |
| 20260504034529 | 6 | 203 | 0.0 | 0.0 | 0.00 | 0.00 | 0.00 | 73 | 1015.3 |
| 20260504033116 | 6 | 203 | 0.0 | 0.0 | 0.00 | 0.00 | 0.00 | 73 | 1015.3 |
| 20260504031533 | 6 | 184 | 0.0 | 0.0 | 0.00 | 0.00 | 0.00 | 72 | 1015.2 |
| 20260504030010 | 6 | 183 | 0.0 | 0.0 | 0.00 | 0.00 | 0.00 | 71 | 1015.1 |
| 20260504024600 | 7 | 183 | 0.0 | 0.0 | 0.00 | 0.00 | 0.00 | 67 | 1015.2 |
| 20260504023022 | 7 | 183 | 0.0 | 0.0 | 0.00 | 0.00 | 0.00 | 65 | 1015.2 |
| 20260504021600 | 7 | 218 | 0.0 | 0.0 | 0.00 | 0.00 | 0.00 | 68 | 1015.2 |
| 20260504020023 | 8 | 218 | 0.0 | 0.0 | 0.00 | 0.00 | 0.00 | 60 | 1015.1 |
| 20260504014600 | 8 | 218 | 0.0 | 0.0 | 0.00 | 0.00 | 0.00 | 67 | 1015.0 |
| 20260504013029 | 8 | 218 | 0.0 | 0.0 | 0.00 | 0.00 | 0.00 | 57 | 1014.9 |
| 20260504011501 | 8 | 218 | 0.0 | 0.0 | 0.00 | 0.00 | 0.00 | 55 | 1014.8 |
| 20260504010042 | 9 | 219 | 0.0 | 0.0 | 0.00 | 0.00 | 0.00 | 57 | 1014.7 |
| 20260504004532 | 9 | 291 | 0.0 | 3.2 | 0.00 | 0.00 | 0.00 | 54 | 1014.5 |
| 20260504003054 | 10 | 242 | 0.0 | 0.0 | 0.00 | 0.00 | 0.00 | 49 | 1014.4 |
| 20260504001520 | 11 | 127 | 0.0 | 0.0 | 0.00 | 0.00 | 0.00 | 46 | 1014.1 |
| 20260503234529 | 11 | 222 | 0.0 | 0.0 | 0.00 | 0.00 | 0.00 | 44 | 1013.9 |
| 20260503233001 | 12 | 219 | 0.0 | 6.4 | 0.00 | 0.00 | 0.00 | 43 | 1013.9 |
| 20260503231551 | 12 | 91 | 0.0 | 6.4 | 0.00 | 0.00 | 0.00 | 44 | 1013.9 |
| 20260503230017 | 12 | 121 | 1.6 | 11.3 | 0.00 | 0.00 | 0.00 | 41 | 1013.7 |
| 20260503224559 | 13 | 314 | 1.6 | 8.0 | 0.00 | 0.00 | 0.00 | 40 | 1013.5 |
| 20260503223028 | 13 | 228 | 1.6 | 14.5 | 0.00 | 0.00 | 0.00 | 38 | 1013.5 |
| 20260503221605 | 13 | 335 | 0.0 | 11.3 | 0.00 | 0.00 | 0.00 | 36 | 1013.6 |
| 20260503220038 | 13 | 184 | 3.2 | 14.5 | 0.00 | 0.00 | 0.00 | 37 | 1013.7 |
| 20260503214611 | 13 | 104 | 1.6 | 8.0 | 0.00 | 0.00 | 0.00 | 36 | 1013.6 |
| 20260503213044 | 13 | 114 | 3.2 | 8.0 | 0.00 | 0.00 | 0.00 | 36 | 1013.6 |
| 20260503211514 | 13 | 288 | 3.2 | 19.3 | 0.00 | 0.00 | 0.00 | 35 | 1013.5 |
| 20260503210057 | 13 | 158 | 4.8 | 16.1 | 0.00 | 0.00 | 0.00 | 36 | 1013.4 |
| 20260503204523 | 13 | 18 | 3.2 | 11.3 | 0.00 | 0.00 | 0.00 | 33 | 1013.4 |
| 20260503203107 | 13 | 307 | 4.8 | 14.5 | 0.00 | 0.00 | 0.00 | 37 | 1013.7 |
| 20260503201536 | 12 | 146 | 1.6 | 14.5 | 0.00 | 0.00 | 0.00 | 39 | 1013.9 |
| 20260503200006 | 13 | 350 | 4.8 | 17.7 | 0.00 | 0.00 | 0.00 | 37 | 1014.0 |
| 20260503194543 | 12 | 285 | 3.2 | 27.4 | 0.00 | 0.00 | 0.00 | 40 | 1014.1 |
| 20260503193016 | 12 | 59 | 4.8 | 17.7 | 0.00 | 0.00 | 0.00 | 39 | 1014.1 |
| 20260503191550 | 12 | 143 | 1.6 | 17.7 | 0.00 | 0.00 | 0.00 | 37 | 1014.3 |
| 20260503190100 | 12 | 158 | 4.8 | 12.9 | 0.00 | 0.00 | 0.00 | 34 | 1014.4 |
| 20260503184522 | 12 | 229 | 4.8 | 17.7 | 0.00 | 0.00 | 0.00 | 38 | 1014.3 |
| 20260503183103 | 12 | 146 | 1.6 | 16.1 | 0.00 | 0.00 | 0.00 | 40 | 1014.6 |
| 20260503181528 | 11 | 345 | 6.4 | 19.3 | 0.00 | 0.00 | 0.00 | 38 | 1014.6 |
| 20260503180108 | 12 | 121 | 1.6 | 19.3 | 0.00 | 0.00 | 0.00 | 36 | 1014.7 |
| 20260503174545 | 12 | 138 | 4.8 | 17.7 | 0.00 | 0.00 | 0.00 | 35 | 1014.7 |
| 20260503173007 | 11 | 138 | 3.2 | 24.1 | 0.00 | 0.00 | 0.00 | 36 | 1014.8 |
| 20260503171542 | 11 | 280 | 4.8 | 22.5 | 0.00 | 0.00 | 0.00 | 36 | 1014.9 |